Location: Moscow
(38.8570°N, 84.2291°W)
Time: 20:28:57
(UTC+00:00)

UKube-1 - Pass Details

Date: 14 March 2026
Orbit: 527 x 530 km, 98.4° (Epoch: 11 April)

Event Time Altitude Azimuth Distance (km) Brightness Sun altitude
Rises 09:47:24 0° 38° (NE) 2,669 ? -24.3°
Reaches altitude 10° 09:50:57 10° 73° (ENE) 1,772 ? -23.7°
Maximum altitude 09:52:12 11° 93° (E) 1,684 ? -23.4°
Drops below altitude 10° 09:53:27 10° 112° (ESE) 1,767 ? -23.2°
Sets 09:56:57 0° 147° (SSE) 2,648 ? -22.6°
